WQ2H Weather Reports


time (UTC)temp
C
wind
direction
speed
KPH
gust
KPH
rain 1hr
cm
rain 24hr
cm
rain mn
cm
humidity
%
barometer
mb
20260507050053 7 0 1.6 4.8 0.00 1.09 0.00 94 1036.4
20260507044546 7 113 0.0 3.2 0.00 1.09 0.00 95 1036.3
20260507043050 7 15 0.0 3.2 0.00 1.09 0.00 94 1036.0
20260507041552 7 0 1.6 4.8 0.00 1.09 0.00 94 1036.3
20260507040058 8 0 0.0 4.8 0.03 1.09 0.00 95 1036.6
20260507034554 8 0 0.0 8.0 0.03 1.09 1.09 95 1036.1
20260507033051 8 15 0.0 4.8 0.05 1.09 1.09 95 1035.9
20260507031559 8 11 0.0 6.4 0.10 1.09 1.09 95 1035.9
20260507030054 10 15 1.6 6.4 0.10 1.07 1.07 95 1035.8
20260507024548 10 70 0.0 4.8 0.10 1.07 1.07 95 1035.9
20260507023051 10 27 1.6 12.9 0.10 1.04 1.04 94 1035.8
20260507021549 10 342 3.2 8.0 0.08 0.99 0.99 94 1035.7
20260507020053 11 9 3.2 9.7 0.08 0.97 0.97 93 1035.1
20260507014555 12 281 1.6 9.7 0.20 0.97 0.97 95 1035.0
20260507013108 12 328 1.6 4.8 0.23 0.91 0.91 94 1034.9
20260507011550 12 0 0.0 12.9 0.23 0.91 0.91 94 1034.8
20260507010058 13 5 3.2 11.3 0.20 0.89 0.89 95 1034.7
20260507004555 13 330 1.6 11.3 0.08 0.79 0.76 95 1034.4
20260507003053 13 180 1.6 6.4 0.00 0.71 0.69 95 1034.3
20260507001559 13 0 0.0 6.4 0.03 0.71 0.69 95 1034.0
20260507000054 13 286 1.6 6.4 0.03 0.71 0.69 95 1034.0
20260506234549 13 41 0.0 6.4 0.03 0.71 0.69 95 1033.7
20260506233106 13 0 0.0 16.1 0.03 0.71 0.69 95 1033.6
20260506231558 13 86 3.2 11.3 0.00 0.69 0.66 95 1033.6
20260506230103 13 44 1.6 8.0 0.00 0.69 0.66 95 1033.7
20260506224553 13 50 1.6 9.7 0.00 0.69 0.66 94 1033.7
20260506223053 13 192 3.2 11.3 0.00 0.69 0.66 94 1033.9
20260506221555 13 0 3.2 12.9 0.00 0.69 0.66 94 1033.9
20260506220059 13 46 3.2 12.9 0.00 0.69 0.66 93 1033.9
20260506214600 13 63 1.6 17.7 0.00 0.69 0.66 93 1034.0
20260506213050 13 188 1.6 14.5 0.00 0.69 0.66 93 1034.0
20260506211601 13 169 1.6 11.3 0.00 0.69 0.66 93 1034.0
20260506210047 14 96 3.2 14.5 0.05 0.69 0.66 93 1034.0
20260506204549 14 117 1.6 16.1 0.13 0.69 0.66 93 1034.1
20260506203049 14 243 3.2 14.5 0.18 0.69 0.66 93 1034.4
20260506201547 14 84 1.6 11.3 0.25 0.69 0.66 93 1034.5
20260506200049 14 217 3.2 12.9 0.36 0.64 0.61 93 1034.6
20260506194553 14 165 1.6 9.7 0.28 0.56 0.53 94 1034.8
20260506193049 14 167 1.6 9.7 0.23 0.51 0.48 93 1034.9
20260506191549 15 45 1.6 9.7 0.20 0.43 0.41 93 1035.1
20260506190052 15 0 1.6 8.0 0.08 0.28 0.25 93 1035.1
20260506184559 15 71 1.6 8.0 0.10 0.28 0.25 94 1034.9
20260506183053 15 69 0.0 9.7 0.15 0.28 0.25 93 1035.1
20260506181553 15 0 1.6 6.4 0.18 0.23 0.20 93 1035.8
20260506180055 15 64 1.6 8.0 0.18 0.20 0.18 93 1036.3
20260506174554 15 62 0.0 4.8 0.15 0.18 0.15 92 1036.2
20260506173107 15 40 0.0 4.8 0.10 0.13 0.10 91 1036.6
20260506171602 15 63 1.6 6.4 0.03 0.05 0.03 88 1036.6
20260506170059 16 0 1.6 8.0 0.00 0.03 0.00 85 1036.6
20260506164610 16 157 3.2 9.7 0.00 0.03 0.00 80 1036.5
20260506163059 17 13 3.2 16.1 0.00 0.03 0.00 78 1036.4
20260506161551 17 150 3.2 11.3 0.00 0.03 0.00 77 1036.7
20260506160107 17 0 1.6 8.0 0.00 0.03 0.00 76 1037.0
20260506154554 17 105 3.2 14.5 0.00 0.03 0.00 77 1037.1
20260506153050 17 188 4.8 16.1 0.00 0.03 0.00 76 1037.2
20260506151550 17 188 3.2 9.7 0.00 0.03 0.00 76 1037.4
20260506150049 17 352 1.6 8.0 0.00 0.03 0.00 76 1037.5
20260506144548 17 211 3.2 16.1 0.00 0.03 0.00 74 1037.6
20260506143050 18 193 1.6 6.4 0.00 0.03 0.00 74 1037.1
20260506141606 18 273 1.6 9.7 0.00 0.03 0.00 72 1037.3
20260506140047 17 198 1.6 12.9 0.00 0.03 0.00 76 1037.1
20260506134552 17 213 3.2 12.9 0.00 0.03 0.00 76 1037.1
20260506133106 16 205 4.8 16.1 0.00 0.03 0.00 79 1037.0
20260506131555 16 53 1.6 9.7 0.00 0.03 0.00 81 1037.6
20260506130051 15 187 1.6 12.9 0.00 0.03 0.00 81 1037.6
20260506124550 15 254 4.8 25.7 0.00 0.03 0.00 82 1037.5
20260506123051 15 181 3.2 12.9 0.00 0.03 0.00 82 1037.7
20260506121601 15 121 3.2 17.7 0.00 0.03 0.00 83 1037.6
20260506120118 15 15 3.2 12.9 0.00 0.03 0.00 83 1037.4
20260506114550 15 166 3.2 12.9 0.00 0.03 0.00 82 1037.8
20260506113059 14 92 3.2 19.3 0.00 0.03 0.00 84 1037.7
20260506111552 14 17 3.2 12.9 0.00 0.03 0.00 84 1037.9
20260506110054 13 176 3.2 11.3 0.00 0.03 0.00 84 1038.0
20260506104548 13 192 1.6 12.9 0.00 0.03 0.00 84 1037.9
20260506103053 13 48 1.6 6.4 0.00 0.03 0.00 86 1037.9
20260506101550 12 77 1.6 6.4 0.00 0.03 0.00 86 1037.9
20260506100053 12 51 0.0 6.4 0.00 0.03 0.00 85 1037.6
20260506094550 12 206 1.6 8.0 0.00 0.03 0.00 85 1037.6
20260506093051 12 104 1.6 11.3 0.00 0.03 0.00 85 1037.8
20260506091601 13 0 0.0 8.0 0.00 0.03 0.00 84 1037.7
20260506090053 13 109 1.6 8.0 0.00 0.03 0.00 83 1037.7
20260506084553 13 0 1.6 6.4 0.00 0.03 0.00 83 1037.8
20260506083055 13 0 0.0 9.7 0.00 0.03 0.00 82 1037.8
20260506081554 13 29 1.6 12.9 0.00 0.03 0.00 82 1037.8
20260506073058 14 47 0.0 9.7 0.00 0.03 0.00 79 1038.1
20260506071554 14 338 0.0 3.2 0.00 0.03 0.00 78 1038.1
20260506070114 14 0 1.6 9.7 0.00 0.03 0.00 77 1037.9
20260506061556 15 0 1.6 12.9 0.00 0.03 0.00 75 1037.6